Brunswick, GA

11:52 AM EST on February 20, 2017 (GMT -0500)
Glynco Jetport

Weather History for KBQK - July, 2014

Change the Weather History Date:

Monday, July 28, 2014

  Actual Average Record
Temperature  
Mean Temperature 89 °F -  
Max Temperature 98 °F 92 °F 100 °F (1949)
Min Temperature 80 °F 73 °F 69 °F (1998)
Cooling Degree Days 24    
Growing Degree Days 39 (Base 50)    
Moisture  
Dew Point 73 °F    
Average Humidity 62    
Maximum Humidity 84    
Minimum Humidity 37    
Precipitation  
Precipitation 0.00 in - - ()
Sea Level Pressure  
Sea Level Pressure 29.93 in    
Wind  
Wind Speed 10 mph (WSW)    
Max Wind Speed 18 mph    
Max Gust Speed 23 mph    
Visibility 10 miles    
Events      
Averages and records for this station are not official NWS values.
T = Trace of Precipitation, MM = Missing Value Source: NWS Daily Summary

Daily Weather History Graph

Daily Weather History Graph

Search for Another Location

Airport or City:

Trip Planner

Search our weather history database for the weather conditions in past years. The results will help you decide how hot, cold, wet, or windy it might be!

Date:

Astronomy

Jul. 28, 2014 Rise Set
Actual Time 6:40 AM EDT 8:24 PM EDT
Civil Twilight 6:13 AM EDT 8:50 PM EDT
Nautical Twilight 5:41 AM EDT 9:22 PM EDT
Astronomical Twilight 5:07 AM EDT 9:56 PM EDT
Moon 8:10 AM EDT (7/28) 9:16 PM EDT (7/28)
Length of Visible Light 14h 37m
Length of Day
13h 44m
Waxing Crescent, 3% of the Moon is Illuminated
Jul 28
Waxing Crescent
Aug 3
First Quarter
Aug 10
Full
Aug 17
Last Quarter
Aug 25
New

Hourly Weather History & Observations

Time (EDT) Temp. Heat Index Dew Point Humidity Pressure Visibility Wind Dir Wind Speed Gust Speed Precip Events Conditions
12:15 AM 86.0 °F 91.8 °F 71.6 °F 62% 29.97 in 10.0 mi SW 11.5 mph - N/A   Clear
12:35 AM 86.0 °F 93.4 °F 73.4 °F 66% 29.97 in 10.0 mi WSW 12.7 mph 17.3 mph N/A   Clear
12:55 AM 84.2 °F 90.9 °F 73.4 °F 70% 29.96 in 10.0 mi SW 12.7 mph 18.4 mph N/A   Clear
1:15 AM 82.4 °F 88.2 °F 73.4 °F 74% 29.95 in 10.0 mi SW 9.2 mph 18.4 mph N/A   Clear
1:35 AM 82.4 °F 88.2 °F 73.4 °F 74% 29.95 in 10.0 mi WSW 9.2 mph - N/A   Clear
1:55 AM 82.4 °F 88.2 °F 73.4 °F 74% 29.95 in 10.0 mi WSW 8.1 mph - N/A   Clear
2:15 AM 82.4 °F 88.2 °F 73.4 °F 74% 29.96 in 10.0 mi WSW 9.2 mph - N/A   Clear
2:35 AM 82.4 °F 88.2 °F 73.4 °F 74% 29.96 in 10.0 mi SW 9.2 mph - N/A   Clear
2:55 AM 80.6 °F 85.4 °F 73.4 °F 79% 29.96 in 10.0 mi WSW 9.2 mph - N/A   Clear
3:15 AM 80.6 °F 85.4 °F 73.4 °F 79% 29.96 in 10.0 mi WSW 9.2 mph - N/A   Clear
3:35 AM 80.6 °F 86.2 °F 75.2 °F 84% 29.96 in 10.0 mi WSW 9.2 mph - N/A   Clear
3:55 AM 80.6 °F 86.2 °F 75.2 °F 84% 29.96 in 10.0 mi WSW 6.9 mph - N/A   Clear
4:15 AM 80.6 °F 86.2 °F 75.2 °F 84% 29.96 in 10.0 mi SW 9.2 mph - N/A   Clear
4:35 AM 80.6 °F 86.2 °F 75.2 °F 84% 29.96 in 10.0 mi WSW 8.1 mph - N/A   Clear
4:55 AM 80.6 °F 86.2 °F 75.2 °F 84% 29.96 in 10.0 mi SW 8.1 mph - N/A   Clear
5:15 AM 80.6 °F 86.2 °F 75.2 °F 84% 29.97 in 10.0 mi SW 8.1 mph - N/A   Clear
5:35 AM 80.6 °F 86.2 °F 75.2 °F 84% 29.96 in 10.0 mi WSW 9.2 mph - N/A   Clear
5:55 AM 80.6 °F 86.2 °F 75.2 °F 84% 29.96 in 10.0 mi WSW 6.9 mph - N/A   Clear
6:15 AM 80.6 °F 86.2 °F 75.2 °F 84% 29.97 in 10.0 mi WSW 6.9 mph - N/A   Clear
6:35 AM 80.6 °F 86.2 °F 75.2 °F 84% 29.97 in 10.0 mi WSW 8.1 mph - N/A   Clear
6:55 AM 80.6 °F 86.2 °F 75.2 °F 84% 29.98 in 10.0 mi WSW 8.1 mph - N/A   Clear
7:15 AM 80.6 °F 86.2 °F 75.2 °F 84% 29.97 in 10.0 mi WSW 5.8 mph - N/A   Clear
7:35 AM 80.6 °F 86.2 °F 75.2 °F 84% 29.98 in 10.0 mi WSW 10.4 mph - N/A   Clear
7:55 AM 80.6 °F 86.2 °F 75.2 °F 84% 29.98 in 10.0 mi WSW 9.2 mph 16.1 mph N/A   Clear
8:15 AM 80.6 °F 86.2 °F 75.2 °F 84% 29.98 in 10.0 mi West 9.2 mph - N/A   Clear
8:35 AM 82.4 °F 89.5 °F 75.2 °F 79% 29.98 in 10.0 mi WSW 8.1 mph - N/A   Scattered Clouds
8:55 AM 82.4 °F 89.5 °F 75.2 °F 79% 29.98 in 10.0 mi WSW 9.2 mph - N/A   Clear
9:15 AM 84.2 °F 92.3 °F 75.2 °F 74% 29.97 in 10.0 mi WSW 9.2 mph 17.3 mph N/A   Clear
9:35 AM 86.0 °F 95.1 °F 75.2 °F 70% 29.97 in 10.0 mi WSW 10.4 mph - N/A   Clear
9:55 AM 86.0 °F 95.1 °F 75.2 °F 70% 29.97 in 10.0 mi WSW 9.2 mph - N/A   Clear
10:35 AM 87.8 °F 95.6 °F 73.4 °F 62% 29.97 in 10.0 mi SW 10.4 mph - N/A   Clear
10:55 AM 89.6 °F 99.8 °F 75.2 °F 62% 29.97 in 10.0 mi WSW 8.1 mph - N/A   Clear
11:15 AM 91.4 °F 100.1 °F 73.4 °F 55% 29.97 in 10.0 mi West 9.2 mph - N/A   Clear
11:35 AM 91.4 °F 100.1 °F 73.4 °F 55% 29.97 in 10.0 mi West 8.1 mph - N/A   Clear
11:55 AM 93.2 °F 102.4 °F 73.4 °F 52% 29.96 in 10.0 mi WSW 10.4 mph - N/A   Scattered Clouds
12:15 PM 93.2 °F 102.4 °F 73.4 °F 52% 29.95 in 10.0 mi West 8.1 mph 19.6 mph N/A   Scattered Clouds
12:35 PM 93.2 °F 102.4 °F 73.4 °F 52% 29.94 in 10.0 mi West 12.7 mph 16.1 mph N/A   Scattered Clouds
12:55 PM 95.0 °F 104.5 °F 73.4 °F 49% 29.94 in 10.0 mi WSW 15.0 mph 21.9 mph N/A   Mostly Cloudy
1:15 PM 95.0 °F 104.5 °F 73.4 °F 49% 29.93 in 10.0 mi West 11.5 mph 18.4 mph N/A   Mostly Cloudy
1:35 PM 95.0 °F 103.2 °F 71.6 °F 47% 29.93 in 10.0 mi West 11.5 mph 20.7 mph N/A   Scattered Clouds
1:55 PM 95.0 °F 103.2 °F 71.6 °F 47% 29.92 in 10.0 mi WSW 15.0 mph 20.7 mph N/A   Scattered Clouds
2:15 PM 95.0 °F 103.2 °F 71.6 °F 47% 29.91 in 10.0 mi West 12.7 mph 21.9 mph N/A   Scattered Clouds
2:35 PM 96.8 °F 105.1 °F 71.6 °F 44% 29.91 in 10.0 mi WSW 12.7 mph 19.6 mph N/A   Scattered Clouds
2:55 PM 96.8 °F 103.1 °F 69.8 °F 41% 29.90 in 10.0 mi West 18.4 mph 23.0 mph N/A   Scattered Clouds
3:15 PM 96.8 °F 103.1 °F 69.8 °F 41% 29.89 in 10.0 mi WSW 12.7 mph 18.4 mph N/A   Scattered Clouds
3:35 PM 96.8 °F 103.1 °F 69.8 °F 41% 29.88 in 10.0 mi WSW 16.1 mph 20.7 mph N/A   Scattered Clouds
3:55 PM 96.8 °F 103.1 °F 69.8 °F 41% 29.88 in 10.0 mi WSW 11.5 mph 18.4 mph N/A   Scattered Clouds
4:15 PM 96.8 °F 103.1 °F 69.8 °F 41% 29.87 in 10.0 mi WSW 13.8 mph 21.9 mph N/A   Scattered Clouds
4:35 PM 98.6 °F 104.1 °F 68.0 °F 37% 29.87 in 10.0 mi WSW 15.0 mph - N/A   Scattered Clouds
4:55 PM 96.8 °F 101.8 °F 68.0 °F 39% 29.86 in 10.0 mi West 10.4 mph 18.4 mph N/A   Scattered Clouds
5:15 PM 96.8 °F 101.8 °F 68.0 °F 39% 29.86 in 10.0 mi West 10.4 mph 16.1 mph N/A   Scattered Clouds
5:35 PM 96.8 °F 101.8 °F 68.0 °F 39% 29.86 in 10.0 mi WSW 11.5 mph 17.3 mph N/A   Scattered Clouds
5:55 PM 96.8 °F 101.8 °F 68.0 °F 39% 29.86 in 10.0 mi WSW 10.4 mph 16.1 mph N/A   Scattered Clouds
6:15 PM 96.8 °F 101.8 °F 68.0 °F 39% 29.85 in 10.0 mi WSW 13.8 mph 19.6 mph N/A   Clear
6:35 PM 96.8 °F 101.8 °F 68.0 °F 39% 29.85 in 10.0 mi WSW 9.2 mph - N/A   Scattered Clouds
6:55 PM 95.0 °F 99.5 °F 68.0 °F 41% 29.85 in 10.0 mi WSW 9.2 mph 16.1 mph N/A   Scattered Clouds
7:15 PM 93.2 °F 97.7 °F 68.0 °F 44% 29.85 in 10.0 mi WSW 8.1 mph - N/A   Clear
7:35 PM 91.4 °F 96.8 °F 69.8 °F 49% 29.85 in 10.0 mi SW 8.1 mph - N/A   Clear
7:55 PM 91.4 °F 96.8 °F 69.8 °F 49% 29.86 in 10.0 mi WSW 6.9 mph - N/A   Clear
8:15 PM 91.4 °F 96.8 °F 69.8 °F 49% 29.86 in 10.0 mi WSW 9.2 mph - N/A   Clear
8:35 PM 89.6 °F 94.7 °F 69.8 °F 52% 29.86 in 10.0 mi WSW 8.1 mph - N/A   Clear
8:55 PM 89.6 °F 94.7 °F 69.8 °F 52% 29.86 in 10.0 mi SSW 6.9 mph - N/A   Clear
9:15 PM 89.6 °F 96.2 °F 71.6 °F 55% 29.87 in 10.0 mi SSW 8.1 mph - N/A   Clear
9:35 PM 89.6 °F 98.2 °F 73.4 °F 59% 29.89 in 10.0 mi SW 11.5 mph 16.1 mph N/A   Clear
9:55 PM 87.8 °F 95.6 °F 73.4 °F 62% 29.90 in 10.0 mi WSW 11.5 mph 18.4 mph N/A   Clear
10:15 PM 87.8 °F 95.6 °F 73.4 °F 62% 29.90 in 10.0 mi WSW 11.5 mph 17.3 mph N/A   Clear
10:35 PM 86.0 °F 93.4 °F 73.4 °F 66% 29.91 in 10.0 mi WSW 10.4 mph - N/A   Clear
10:55 PM 86.0 °F 93.4 °F 73.4 °F 66% 29.91 in 10.0 mi WSW 12.7 mph - N/A   Clear
11:15 PM 86.0 °F 93.4 °F 73.4 °F 66% 29.91 in 10.0 mi WSW 12.7 mph - N/A   Clear
11:35 PM 86.0 °F 93.4 °F 73.4 °F 66% 29.90 in 10.0 mi WSW 11.5 mph - N/A   Clear
11:55 PM 86.0 °F 93.4 °F 73.4 °F 66% 29.90 in 10.0 mi WSW 9.2 mph - N/A   Clear